Fairbanks, AK

11:10 AM AKDT on March 27, 2017 (GMT -0800)
Fairbanks International

Weather History for PAFA - January, 2013

Change the Weather History Date:

Wednesday, January 23, 2013

  Actual Average Record
Temperature  
Mean Temperature 1 °F -8 °F  
Max Temperature 9 °F 1 °F 39 °F (1981)
Min Temperature -7 °F -17 °F -60 °F (1906)
Degree Days  
Heating Degree Days 64 73  
Month to date heating degree days 1421 1683  
Since 1 July heating degree days 8445 7955  
Cooling Degree Days 0 0  
Month to date cooling degree days 0 0  
Year to date cooling degree days 0 0  
Moisture  
Dew Point -4 °F    
Average Humidity 68    
Maximum Humidity 83    
Minimum Humidity 49    
Precipitation  
Precipitation T in 0.01 in 0.39 in (1950)
Month to date precipitation 0.69 0.44  
Year to date precipitation 0.69 0.44  
Snow  
Snow T in 0.20 in 6.80 in (1950)
Month to date snowfall 8.1 7.8  
Since 1 July snowfall 38.0 45.7  
Snow Depth 19.00 in    
Sea Level Pressure  
Sea Level Pressure 29.71 in    
Wind  
Wind Speed 9 mph (NNE)    
Max Wind Speed 15 mph    
Max Gust Speed -    
Visibility 10 miles    
Events Snow    
T = Trace of Precipitation, MM = Missing Value Source: NWS Daily Summary

Daily Weather History Graph

Daily Weather History Graph

Search for Another Location

Airport or City:

Trip Planner

Search our weather history database for the weather conditions in past years. The results will help you decide how hot, cold, wet, or windy it might be!

Date:

Astronomy

Jan. 23, 2013 Rise Set
Actual Time 10:03 AM AKST 4:04 PM AKST
Civil Twilight 8:59 AM AKST 5:08 PM AKST
Nautical Twilight 7:55 AM AKST 6:12 PM AKST
Astronomical Twilight 6:57 AM AKST 7:10 PM AKST
Moon 12:56 PM AKST (1/23) 7:49 AM AKST (1/23)
Length of Visible Light 8h 09m
Length of Day
6h 01m
Waxing Gibbous, 90% of the Moon is Illuminated
Jan 23
Waxing Gibbous
Jan 26
Full
Feb 3
Last Quarter
Feb 9
New
Feb 17
First Quarter

Hourly Weather History & Observations

Time (AKST) Temp. Windchill Dew Point Humidity Pressure Visibility Wind Dir Wind Speed Gust Speed Precip Events Conditions
12:53 AM -4.0 °F -17.8 °F -8.0 °F 83% 29.79 in 10.0 mi ENE 6.9 mph - N/A   Clear
1:53 AM -4.0 °F -17.8 °F -8.0 °F 83% 29.78 in 10.0 mi NE 6.9 mph - N/A   Clear
3:53 AM -2.9 °F -16.5 °F -7.1 °F 82% 29.75 in 10.0 mi ENE 6.9 mph - N/A   Partly Cloudy
4:53 AM 3.9 °F -8.2 °F -2.0 °F 76% 29.74 in 10.0 mi East 6.9 mph - N/A   Mostly Cloudy
5:53 AM 3.0 °F -8.0 °F -2.9 °F 76% 29.73 in 10.0 mi NE 5.8 mph - N/A   Mostly Cloudy
6:53 AM 1.9 °F -10.6 °F -4.0 °F 76% 29.72 in 10.0 mi East 6.9 mph - N/A   Mostly Cloudy
7:53 AM -0.9 °F -14.1 °F -5.1 °F 83% 29.72 in 10.0 mi ENE 6.9 mph - N/A   Scattered Clouds
8:53 AM -2.9 °F -16.5 °F -8.0 °F 79% 29.71 in 10.0 mi NE 6.9 mph - N/A   Mostly Cloudy
9:53 AM 3.9 °F -8.2 °F -0.9 °F 80% 29.71 in 10.0 mi NNE 6.9 mph - N/A   Overcast
10:53 AM 8.1 °F -9.0 °F -0.9 °F 67% 29.70 in 10.0 mi North 15.0 mph - N/A   Mostly Cloudy
11:53 AM 9.0 °F -6.6 °F -0.9 °F 64% 29.69 in 10.0 mi North 12.7 mph - N/A   Mostly Cloudy
12:53 PM 9.0 °F -7.3 °F -0.0 °F 67% 29.68 in 10.0 mi North 13.8 mph - N/A   Mostly Cloudy
1:53 PM 9.0 °F -5.9 °F -0.0 °F 67% 29.68 in 10.0 mi North 11.5 mph - N/A   Mostly Cloudy
2:53 PM 8.1 °F -8.4 °F -2.0 °F 64% 29.67 in 10.0 mi North 13.8 mph - N/A   Overcast
3:53 PM 8.1 °F -7.0 °F -0.9 °F 67% 29.67 in 10.0 mi North 11.5 mph - N/A Snow Light Snow
4:53 PM 8.1 °F -7.7 °F -2.9 °F 61% 29.67 in 10.0 mi North 12.7 mph - N/A Snow Light Snow
5:53 PM 7.0 °F -8.3 °F -2.9 °F 64% 29.67 in 10.0 mi North 11.5 mph - N/A Snow Light Snow
6:53 PM 7.0 °F -5.7 °F -4.0 °F 61% 29.67 in 10.0 mi North 8.1 mph - N/A Snow Light Snow
7:53 PM 6.1 °F -9.5 °F -4.0 °F 63% 29.68 in 10.0 mi North 11.5 mph - N/A   Overcast
8:53 PM 5.0 °F -11.6 °F -5.1 °F 63% 29.69 in 10.0 mi North 12.7 mph - N/A   Overcast
9:53 PM 5.0 °F -10.0 °F -6.0 °F 61% 29.70 in 8.0 mi North 10.4 mph - N/A Snow Light Snow
10:53 PM 5.0 °F -9.1 °F -7.1 °F 58% 29.71 in 9.0 mi North 9.2 mph - N/A   Overcast
11:53 PM 3.9 °F -11.3 °F -7.1 °F 60% 29.72 in 9.0 mi North 10.4 mph - N/A Snow Light Snow